Location: Street
(51.1247°N, 2.7429°W)
Time: 21:57:14
(UTC+00:00)

RS-15 - Visible Passes

Search period start: 22 March 2023 00:00
Search period end: 01 April 2023 01:00
Orbit: 1883 x 2161 km, 64.8° (Epoch: 21 March)

Date Brightness Start Highest point End Pass type
(mag) Time Alt. Az. Time Alt. Az. Time Alt. Az.
22 Mar 8.3 00:24:47 10° NW 00:36:56 65° NE 00:45:30 21° ESE visible
22 Mar 8.0 02:37:52 10° NW 02:49:21 55° WSW 02:53:02 42° SSW visible
22 Mar 9.1 04:53:33 10° WNW 04:58:41 14° W 05:00:34 13° W visible
22 Mar 8.7 19:17:34 10° WSW 19:29:48 62° NW 19:41:52 10° NE visible
22 Mar 9.0 21:33:31 10° WNW 21:45:06 43° N 21:56:19 10° ENE visible
22 Mar 8.4 23:48:30 10° NW 00:00:32 58° NNE 00:08:52 21° ESE visible
23 Mar 7.9 02:01:41 10° NW 02:13:32 67° WSW 02:16:29 53° S visible
23 Mar 8.9 04:16:00 10° NW 04:23:28 20° W 04:24:06 20° W visible
23 Mar 8.6 18:41:05 10° SW 18:53:26 70° NW 19:05:38 10° NE visible
23 Mar 9.0 20:56:43 10° W 21:08:22 44° N 21:19:40 10° ENE visible
23 Mar 8.6 23:12:07 10° NW 23:24:00 52° NNE 23:32:55 18° E visible
24 Mar 7.9 01:25:30 10° NW 01:37:36 80° SW 01:40:34 58° SSE visible
24 Mar 8.7 03:39:09 10° NW 03:48:07 26° W 03:48:14 26° W visible
24 Mar 9.0 20:19:54 10° W 20:31:40 46° NNW 20:43:07 10° ENE visible
24 Mar 8.8 22:35:40 10° NW 22:47:25 48° NNE 22:57:16 15° E visible
25 Mar 7.9 00:49:20 10° NW 01:01:32 87° NE 01:04:57 55° SE visible
25 Mar 8.5 03:02:37 10° NW 03:12:37 34° WSW 03:12:37 34° WSW visible
25 Mar 9.0 19:43:07 10° W 19:55:01 49° NNW 20:06:40 10° NE visible
25 Mar 8.9 21:59:06 10° WNW 22:10:45 45° NNE 22:21:48 10° E visible
26 Mar 8.1 00:13:09 10° NW 00:25:22 76° NE 00:29:29 48° ESE visible
26 Mar 8.2 03:26:15 10° NW 03:37:05 43° WSW 03:37:11 43° WSW visible
26 Mar 8.9 20:06:22 10° WSW 20:18:26 54° NNW 20:30:17 10° NE visible
26 Mar 9.0 22:22:27 10° WNW 22:34:02 43° N 22:45:11 10° ENE visible
27 Mar 8.2 00:36:55 10° NW 00:49:04 66° NE 00:54:09 39° ESE visible
27 Mar 8.0 02:50:00 10° NW 03:01:24 54° WSW 03:01:51 53° WSW visible
27 Mar 9.3 05:06:00 10° WNW 05:09:33 13° W 05:09:33 13° W visible
27 Mar 9.0 21:45:43 10° WNW 21:57:18 43° N 22:08:29 10° ENE visible
28 Mar 8.4 00:00:38 10° NW 00:12:41 59° NNE 00:18:54 31° E visible
28 Mar 7.9 02:13:47 10° NW 02:25:36 66° WSW 02:26:37 63° SW visible
28 Mar 9.1 04:28:16 10° WNW 04:34:19 19° W 04:34:19 19° W visible
28 Mar 9.0 21:08:56 10° WNW 21:20:34 44° N 21:31:51 10° ENE visible
28 Mar 8.6 23:24:16 10° NW 23:36:11 53° NNE 23:43:43 24° E visible
29 Mar 7.8 01:37:38 10° NW 01:49:40 78° SW 01:51:26 68° S visible
29 Mar 8.9 03:51:21 10° NW 03:59:09 25° W 03:59:09 25° W visible
29 Mar 9.0 20:32:07 10° W 20:43:51 46° NNW 20:55:16 10° ENE visible
29 Mar 8.7 22:47:50 10° NW 22:59:36 48° NNE 23:08:35 18° E visible
30 Mar 7.9 01:01:27 10° NW 01:13:38 89° NE 01:16:19 62° SE visible
30 Mar 8.6 03:14:47 10° NW 03:24:01 33° W 03:24:01 33° W visible
30 Mar 9.0 19:55:19 10° W 20:07:12 49° NNW 20:18:48 10° NE visible
30 Mar 8.9 22:11:17 10° WNW 22:22:57 45° NNE 22:33:30 12° E visible
31 Mar 8.0 00:25:16 10° NW 00:37:29 78° NE 00:41:14 51° ESE visible
31 Mar 8.4 02:38:24 10° NW 02:48:57 42° WSW 02:48:57 42° WSW visible
31 Mar 9.0 21:34:39 10° WNW 21:46:14 43° N 21:57:22 10° ENE visible
31 Mar 8.2 23:49:03 10° NW 00:01:13 68° NE 00:06:11 40° ESE visible
